Adak, AK

12:53 PM HDT on June 25, 2017 (GMT -0900)
Adak

Weather History for PADK - March, 2014

Change the Weather History Date:

Sunday, March 23, 2014

  Actual Average Record
Temperature  
Mean Temperature 40 °F -  
Max Temperature 44 °F 38 °F 69 °F (1998)
Min Temperature 35 °F 30 °F 15 °F (2007)
Degree Days  
Heating Degree Days 26    
Moisture  
Dew Point 31 °F    
Average Humidity 75    
Maximum Humidity 87    
Minimum Humidity 55    
Precipitation  
Precipitation 0.01 in - - ()
Sea Level Pressure  
Sea Level Pressure 29.70 in    
Wind  
Wind Speed 15 mph (WSW)    
Max Wind Speed 28 mph    
Max Gust Speed 31 mph    
Visibility 9 miles    
Events      
Averages and records for this station are not official NWS values.
T = Trace of Precipitation, MM = Missing Value Source: NWS Daily Summary

Daily Weather History Graph

Daily Weather History Graph

Search for Another Location

Airport or City:

Trip Planner

Search our weather history database for the weather conditions in past years. The results will help you decide how hot, cold, wet, or windy it might be!

Date:

Astronomy

Mar. 23, 2014 Rise Set
Actual Time 8:41 AM HDT 9:05 PM HDT
Civil Twilight 8:07 AM HDT 9:39 PM HDT
Nautical Twilight 7:27 AM HDT 10:19 PM HDT
Astronomical Twilight 6:46 AM HDT 11:01 PM HDT
Moon 4:10 AM HDT (3/23) 1:02 PM HDT (3/23)
Length of Visible Light 13h 31m
Length of Day
12h 23m
Waning Gibbous, 52% of the Moon is Illuminated
Mar 23
Waning Gibbous
Mar 23
Last Quarter
Mar 30
New
Apr 6
First Quarter
Apr 14
Full

Hourly Weather History & Observations

Time (HDT) Temp. Windchill Dew Point Humidity Pressure Visibility Wind Dir Wind Speed Gust Speed Precip Events Conditions
12:16 AM 37.4 °F 31.4 °F 30.2 °F 75% 29.68 in 8.0 mi South 8.1 mph 23.0 mph 0.01 in   Unknown
12:36 AM 37.4 °F 29.3 °F 30.2 °F 75% 29.67 in 8.0 mi South 12.7 mph 19.6 mph 0.03 in   Unknown
12:56 AM 35.6 °F 25.9 °F 30.2 °F 81% 29.66 in 7.0 mi South 16.1 mph - 0.05 in   Unknown
1:16 AM 37.4 °F 27.5 °F 30.2 °F 75% 29.65 in 9.0 mi SSE 18.4 mph 26.5 mph 0.01 in   Unknown
1:36 AM 35.6 °F 24.8 °F 30.2 °F 81% 29.63 in 7.0 mi SSE 19.6 mph 26.5 mph 0.03 in   Unknown
1:56 AM 35.6 °F 24.5 °F 30.2 °F 81% 29.62 in 10.0 mi South 20.7 mph 28.8 mph 0.04 in   Unknown
2:16 AM 35.6 °F 24.5 °F 30.2 °F 81% 29.61 in 10.0 mi South 20.7 mph 24.2 mph 0.01 in   Unknown
2:36 AM 35.6 °F 24.8 °F 30.2 °F 81% 29.60 in 10.0 mi SSE 19.6 mph 24.2 mph 0.01 in   Unknown
2:56 AM 35.6 °F 25.2 °F 30.2 °F 81% 29.59 in 10.0 mi SSE 18.4 mph 24.2 mph 0.02 in   Unknown
3:16 AM 37.4 °F 27.2 °F 30.2 °F 75% 29.58 in 10.0 mi SSE 19.6 mph - N/A   Unknown
3:36 AM 37.4 °F 28.2 °F 30.2 °F 75% 29.58 in 10.0 mi SSE 16.1 mph 21.9 mph N/A   Unknown
3:56 AM 37.4 °F 30.3 °F 32.0 °F 81% 29.57 in 9.0 mi SSE 10.4 mph - N/A   Unknown
4:16 AM 37.4 °F 30.3 °F 32.0 °F 81% 29.56 in 10.0 mi South 10.4 mph - N/A   Unknown
4:36 AM 37.4 °F 30.8 °F 33.8 °F 87% 29.55 in 8.0 mi SSE 9.2 mph - N/A   Unknown
4:56 AM 37.4 °F 32.8 °F 33.8 °F 87% 29.54 in 10.0 mi South 5.8 mph - N/A   Unknown
5:16 AM 37.4 °F 34.9 °F 33.8 °F 87% 29.54 in 10.0 mi South 3.5 mph - N/A   Unknown
5:36 AM 37.4 °F - 33.8 °F 87% 29.53 in 3.0 mi Calm Calm - N/A   Unknown
5:56 AM 37.4 °F 29.8 °F 33.8 °F 87% 29.54 in 5.0 mi WSW 11.5 mph - N/A   Unknown
6:16 AM 39.2 °F 33.6 °F 35.6 °F 87% 29.55 in 10.0 mi West 8.1 mph - N/A   Unknown
6:36 AM 39.2 °F 32.0 °F 35.6 °F 87% 29.56 in 10.0 mi West 11.5 mph - N/A   Unknown
6:56 AM 39.2 °F 30.2 °F 33.8 °F 81% 29.56 in 10.0 mi West 17.3 mph - N/A   Unknown
7:16 AM 39.2 °F 29.6 °F 33.8 °F 81% 29.57 in 4.0 mi West 19.6 mph 23.0 mph N/A   Unknown
7:36 AM 37.4 °F 27.5 °F 33.8 °F 87% 29.58 in 9.0 mi West 18.4 mph 26.5 mph N/A   Unknown
7:56 AM 37.4 °F 28.5 °F 33.8 °F 87% 29.59 in 10.0 mi West 15.0 mph 19.6 mph N/A   Unknown
8:16 AM 37.4 °F 28.2 °F 30.2 °F 75% 29.60 in 10.0 mi West 16.1 mph 21.9 mph N/A   Unknown
8:36 AM 37.4 °F 29.3 °F 28.4 °F 70% 29.61 in 10.0 mi WNW 12.7 mph - N/A   Unknown
8:56 AM 37.4 °F 28.9 °F 30.2 °F 75% 29.63 in 10.0 mi West 13.8 mph 19.6 mph N/A   Unknown
9:16 AM 37.4 °F 28.2 °F 30.2 °F 75% 29.64 in 10.0 mi West 16.1 mph 26.5 mph N/A   Unknown
9:36 AM 37.4 °F 28.2 °F 30.2 °F 75% 29.65 in 10.0 mi West 16.1 mph - N/A   Unknown
9:56 AM 37.4 °F 28.9 °F 30.2 °F 75% 29.66 in 10.0 mi West 13.8 mph 19.6 mph N/A   Unknown
10:16 AM 39.2 °F 30.8 °F 32.0 °F 75% 29.67 in 10.0 mi WSW 15.0 mph 18.4 mph N/A   Unknown
10:36 AM 37.4 °F 26.9 °F 30.2 °F 75% 29.68 in 5.0 mi West 20.7 mph 26.5 mph N/A   Unknown
10:56 AM 37.4 °F 27.5 °F 33.8 °F 87% 29.68 in 10.0 mi West 18.4 mph 24.2 mph N/A   Unknown
11:16 AM 37.4 °F 29.8 °F 30.2 °F 75% 29.70 in 10.0 mi West 11.5 mph 21.9 mph N/A   Unknown
11:36 AM 39.2 °F 30.5 °F 32.0 °F 75% 29.70 in 10.0 mi West 16.1 mph 23.0 mph N/A   Unknown
11:56 AM 39.2 °F 29.3 °F 33.8 °F 81% 29.70 in 10.0 mi WSW 20.7 mph 24.2 mph N/A   Unknown
12:16 PM 41.0 °F 32.5 °F 32.0 °F 70% 29.71 in 10.0 mi West 17.3 mph 24.2 mph N/A   Unknown
12:36 PM 39.2 °F 29.3 °F 30.2 °F 70% 29.72 in 10.0 mi West 20.7 mph 27.6 mph N/A   Unknown
12:56 PM 41.0 °F 32.2 °F 30.2 °F 65% 29.73 in 10.0 mi West 18.4 mph 26.5 mph N/A   Unknown
1:16 PM 41.0 °F 32.2 °F 30.2 °F 65% 29.74 in 10.0 mi WSW 18.4 mph 23.0 mph N/A   Unknown
1:36 PM 39.2 °F 30.2 °F 28.4 °F 65% 29.74 in 10.0 mi WSW 17.3 mph 21.9 mph N/A   Unknown
1:56 PM 41.0 °F 32.8 °F 30.2 °F 65% 29.74 in 10.0 mi West 16.1 mph 25.3 mph N/A   Unknown
2:16 PM 41.0 °F 32.8 °F 32.0 °F 70% 29.74 in 10.0 mi WSW 16.1 mph - N/A   Unknown
2:36 PM 41.0 °F 31.4 °F 30.2 °F 65% 29.74 in 10.0 mi WSW 21.9 mph 28.8 mph N/A   Unknown
2:56 PM 41.0 °F 31.4 °F 30.2 °F 65% 29.75 in 10.0 mi WSW 21.9 mph 25.3 mph N/A   Unknown
3:16 PM 39.2 °F 29.3 °F 28.4 °F 65% 29.75 in 10.0 mi WSW 20.7 mph - N/A   Unknown
3:36 PM 41.0 °F 32.2 °F 28.4 °F 61% 29.76 in 10.0 mi West 18.4 mph - N/A   Unknown
3:56 PM 42.8 °F 34.0 °F 30.2 °F 61% 29.76 in 10.0 mi WSW 20.7 mph 29.9 mph N/A   Unknown
4:16 PM 42.8 °F 34.5 °F 28.4 °F 57% 29.77 in 10.0 mi WSW 18.4 mph - N/A   Unknown
4:36 PM 42.8 °F 34.3 °F 30.2 °F 61% 29.77 in 10.0 mi WSW 19.6 mph 28.8 mph N/A   Unknown
4:56 PM 44.6 °F 37.2 °F 30.2 °F 57% 29.77 in 10.0 mi SW 17.3 mph 24.2 mph N/A   Unknown
5:16 PM 42.8 °F 34.3 °F 30.2 °F 61% 29.78 in 10.0 mi SW 19.6 mph 24.2 mph N/A   Unknown
5:36 PM 37.4 °F 27.5 °F 28.4 °F 70% 29.79 in 3.0 mi West 18.4 mph 27.6 mph N/A   Unknown
5:56 PM 39.2 °F 28.7 °F 33.8 °F 81% 29.79 in 10.0 mi SW 23.0 mph - N/A   Unknown
6:16 PM 39.2 °F 27.8 °F 30.2 °F 70% 29.80 in 10.0 mi West 27.6 mph 31.1 mph N/A   Unknown
6:36 PM 35.6 °F 24.0 °F 30.2 °F 81% 29.81 in 10.0 mi WSW 23.0 mph 27.6 mph N/A   Unknown
6:56 PM 35.6 °F 27.5 °F 30.2 °F 81% 29.80 in 2.0 mi SW 11.5 mph - N/A   Unknown
7:16 PM 37.4 °F 27.5 °F 30.2 °F 75% 29.80 in 10.0 mi WSW 18.4 mph - N/A   Unknown
7:36 PM 39.2 °F 29.8 °F 30.2 °F 70% 29.81 in 10.0 mi SW 18.4 mph - N/A   Unknown
7:56 PM 37.4 °F 28.5 °F 30.2 °F 75% 29.81 in 10.0 mi SW 15.0 mph 20.7 mph N/A   Unknown
8:16 PM 37.4 °F 28.2 °F 30.2 °F 75% 29.81 in 10.0 mi WSW 16.1 mph - 0.01 in   Unknown
8:36 PM 37.4 °F 27.8 °F 28.4 °F 70% 29.82 in 10.0 mi West 17.3 mph 20.7 mph 0.01 in   Unknown
8:56 PM 35.6 °F 27.1 °F 30.2 °F 81% 29.83 in 10.0 mi WSW 12.7 mph - 0.01 in   Unknown
9:16 PM 35.6 °F 25.5 °F 30.2 °F 81% 29.85 in 10.0 mi WSW 17.3 mph - N/A   Unknown
9:36 PM 35.6 °F 26.2 °F 28.4 °F 75% 29.85 in 10.0 mi SW 15.0 mph - N/A   Unknown
9:56 PM 35.6 °F 25.5 °F 28.4 °F 75% 29.86 in 10.0 mi SW 17.3 mph 23.0 mph N/A   Unknown
10:16 PM 35.6 °F 27.5 °F 28.4 °F 75% 29.87 in 10.0 mi WSW 11.5 mph 17.3 mph N/A   Unknown
10:36 PM 35.6 °F 28.0 °F 28.4 °F 75% 29.88 in 10.0 mi WSW 10.4 mph - N/A   Unknown
10:56 PM 35.6 °F 27.1 °F 28.4 °F 75% 29.88 in 10.0 mi SW 12.7 mph - N/A   Unknown
11:16 PM 35.6 °F 25.2 °F 28.4 °F 75% 29.89 in 10.0 mi WSW 18.4 mph - N/A   Unknown
11:36 PM 35.6 °F 25.5 °F 28.4 °F 75% 29.89 in 10.0 mi WSW 17.3 mph - N/A   Unknown
11:56 PM 35.6 °F 25.9 °F 28.4 °F 75% 29.90 in 10.0 mi WSW 16.1 mph 21.9 mph N/A   Unknown